GW5022 Weather Reports


Display with metric or nautical units.
time (UTC)temp
F
wind
direction
speed
MPH
gust
MPH
rain 1hr
in
rain 24hr
in
rain mn
in
humidity
%
barometer
mb
20260510094202 50 179 6.0 8.0 0.00 0.03 0.03 91 1006.4
20260510092702 50 194 8.0 10.0 0.00 0.03 0.03 91 1006.0
20260510091202 50 196 7.0 7.0 0.00 0.03 0.03 91 1005.9
20260510085702 50 181 6.0 7.0 0.00 0.03 0.03 91 1005.8
20260510085212 50 181 6.0 7.0 0.00 0.03 0.03 91 1005.8
20260510084202 50 205 7.0 10.0 0.00 0.03 0.03 92 1005.7
20260510082729 50 167 9.0 10.0 0.00 0.03 0.03 91 1005.6
20260510082212 50 167 9.0 10.0 0.00 0.03 0.03 91 1005.6
20260510075702 51 173 10.0 10.0 0.00 0.03 0.03 92 1005.5
20260510074202 51 183 8.0 10.0 0.00 0.03 0.03 91 1005.6
20260510072243 51 180 7.0 10.0 0.00 0.03 0.03 92 1005.5
20260510071235 51 174 9.0 11.0 0.00 0.03 0.03 92 1005.3
20260510065702 51 193 10.0 12.0 0.01 0.03 0.03 92 1005.1
20260510062728 51 157 12.0 14.0 0.03 0.03 0.03 92 1005.0
20260510061202 51 172 10.0 11.0 0.03 0.03 0.03 92 1005.2
20260510055705 51 189 10.0 15.0 0.01 0.01 0.01 92 1005.4
20260510054209 52 187 12.0 15.0 0.01 0.01 0.01 91 1005.7
20260510052708 52 185 12.0 14.0 0.00 0.00 0.00 90 1005.4
20260510051202 52 176 12.0 16.0 0.00 0.00 0.00 87 1005.7
20260510045711 52 188 14.0 18.0 0.00 0.00 0.00 87 1005.1
20260510044228 51 202 14.0 20.0 0.00 0.00 0.00 87 1005.1
20260510041211 51 175 14.0 17.0 0.00 0.00 0.00 87 1004.9
20260510035702 51 163 16.0 26.0 0.00 0.00 0.00 87 1005.2
20260510033740 51 158 15.0 18.0 0.00 0.00 0.00 87 1005.6
20260510032702 51 157 14.0 16.0 0.00 0.00 0.00 87 1005.6
20260510031202 51 164 14.0 21.0 0.00 0.00 0.00 87 1005.2
20260510025702 52 170 16.0 18.0 0.00 0.00 0.00 87 1005.5
20260510025219 52 170 16.0 18.0 0.00 0.00 0.00 87 1005.5
20260510022706 51 176 16.0 18.0 0.00 0.00 0.00 87 1005.9
20260510021209 51 178 14.0 17.0 0.00 0.00 0.00 87 1006.2
20260510015711 51 165 13.0 20.0 0.00 0.00 0.00 87 1006.4
20260510012710 52 160 16.0 20.0 0.00 0.00 0.00 85 1006.3
20260510011204 52 174 14.0 20.0 0.00 0.00 0.00 84 1006.2
20260510005705 52 158 15.0 21.0 0.00 0.00 0.00 82 1005.8
20260510004205 52 177 16.0 22.0 0.00 0.00 0.00 81 1006.4
20260510002710 53 172 18.0 21.0 0.00 0.00 0.00 80 1006.1
20260510001203 53 158 14.0 22.0 0.00 0.00 0.00 77 1006.3
20260510000713 53 158 14.0 22.0 0.00 0.00 0.00 77 1006.0
20260509235712 54 164 15.0 21.0 0.00 0.00 0.00 76 1006.0
20260509232703 54 175 18.0 22.0 0.00 0.00 0.00 74 1006.1
20260509231203 55 164 16.0 20.0 0.00 0.00 0.00 72 1006.3
20260509225703 56 167 17.0 23.0 0.00 0.00 0.00 69 1006.4
20260509224203 56 170 19.0 26.0 0.00 0.00 0.00 69 1006.5
20260509222728 56 170 19.0 28.0 0.00 0.00 0.00 67 1006.4
20260509221202 57 172 22.0 27.0 0.00 0.00 0.00 66 1006.1
20260509215702 58 173 18.0 28.0 0.00 0.00 0.00 65 1006.3
20260509214202 58 165 19.0 22.0 0.00 0.00 0.00 61 1006.5
20260509212702 58 157 19.0 22.0 0.00 0.00 0.00 59 1006.6
20260509211202 59 167 20.0 26.0 0.00 0.00 0.00 57 1006.5
20260509205703 60 161 19.0 22.0 0.00 0.00 0.00 55 1006.5
20260509204202 60 178 17.0 21.0 0.00 0.00 0.00 52 1006.7
20260509201202 62 188 15.0 21.0 0.00 0.00 0.00 44 1007.0
20260509195702 62 171 15.0 21.0 0.00 0.00 0.00 41 1007.0
20260509194229 63 157 17.0 20.0 0.00 0.00 0.00 38 1007.3
20260509192702 63 179 14.0 16.0 0.00 0.00 0.00 36 1007.2
20260509191202 63 193 14.0 19.0 0.00 0.00 0.00 37 1007.3
20260509185728 63 178 15.0 19.0 0.00 0.00 0.00 32 1007.3
20260509182728 62 176 19.0 22.0 0.00 0.00 0.00 34 1007.7
20260509181202 62 165 18.0 22.0 0.00 0.00 0.00 30 1007.9
20260509175702 63 173 14.0 16.0 0.00 0.00 0.00 28 1008.3
20260509174202 62 172 13.0 20.0 0.00 0.00 0.00 28 1008.6
20260509172702 62 182 14.0 20.0 0.00 0.00 0.00 26 1008.6
20260509171202 62 168 14.0 17.0 0.00 0.00 0.00 27 1009.0
20260509165703 62 167 15.0 19.0 0.00 0.00 0.00 27 1009.1
20260509164202 61 158 15.0 15.0 0.00 0.00 0.00 29 1009.2
20260509162702 61 169 14.0 17.0 0.00 0.00 0.00 31 1009.3
20260509161202 61 161 14.0 17.0 0.00 0.00 0.00 32 1009.6
20260509155702 60 151 14.0 18.0 0.00 0.00 0.00 33 1010.1
20260509154202 59 171 14.0 20.0 0.00 0.00 0.00 31 1009.9
20260509152702 58 185 12.0 17.0 0.00 0.00 0.00 33 1010.2
20260509151202 58 164 13.0 16.0 0.00 0.00 0.00 37 1010.3
20260509145702 56 167 12.0 18.0 0.00 0.00 0.00 40 1010.8
20260509144229 56 161 18.0 20.0 0.00 0.00 0.00 40 1010.6
20260509142728 56 178 15.0 15.0 0.00 0.00 0.00 40 1010.7
20260509141202 55 170 12.0 15.0 0.00 0.00 0.00 43 1010.6
20260509135702 54 167 14.0 20.0 0.00 0.00 0.00 44 1010.6
20260509134202 54 171 13.0 18.0 0.00 0.00 0.00 45 1010.9
20260509132728 53 166 11.0 16.0 0.00 0.00 0.00 48 1011.0
20260509131202 52 147 12.0 15.0 0.00 0.00 0.00 48 1011.0
20260509125702 52 164 13.0 15.0 0.00 0.00 0.00 48 1011.1
20260509124202 50 172 9.0 12.0 0.00 0.00 0.00 51 1011.1
20260509115702 47 176 9.0 10.0 0.00 0.00 0.00 60 1011.3
20260509114202 46 189 8.0 9.0 0.00 0.00 0.00 62 1011.2
20260509112702 45 174 9.0 11.0 0.00 0.00 0.00 63 1011.3
20260509111202 43 177 8.0 11.0 0.00 0.00 0.00 66 1011.3
20260509105702 42 182 9.0 10.0 0.00 0.00 0.00 69 1011.0
20260509104202 40 169 8.0 8.0 0.00 0.00 0.00 72 1010.9
20260509102702 39 165 7.0 7.0 0.00 0.00 0.00 75 1010.9
20260509101202 39 164 7.0 8.0 0.00 0.00 0.00 76 1010.6
20260509095729 39 160 5.0 6.0 0.00 0.00 0.00 76 1010.6